NOAA 16 DEB, 41707

Orbit data source: Space-Track

NOAA 16 DEB, 41707 is space debris in SSO originally from a launch on Thu, 21 Sep 2000 UTC launched from the Air Force Western Test Range (AFWTR). Debris objects in space refer to the collection of defunct objects orbiting the Earth. Examples of debris include non-operational satellites, rocket bodies, and fragments generated from explosions, collisions, or faulty payload assembly.

Loading next visibility...
Identifier
41707, 2000-055PM
Orbit
SSO
Country
Flag of USUS
Related business
Manufacturer
Unknown
Mission
Spacecraft
Bus & Motor
Unknown
Mass
Unknown
Launch date (UTC)
2000-09-21 (26 years ago)
Launch vehicle
Unknown
Launch site
Air Force Western Test Range (AFWTR)
Object type
Payload
Rocket body
Debris
Shape & HBR
Unknown shape, 0.1 m
Radar Cross Section
Small (<0.1 m²)

Expand to show TLE details & history
Last TLE update: 4 days ago

TLE from 4 days ago
0 NOAA 16 DEB
1 41707U 00055PM  26123.86499620  .00008310  00000-0  20658-2 0  9992
2 41707  98.8463 272.7734 0020519 255.5701 104.3215 14.51906650522511
Epoch: 2026-05-03T20:45Z
TLE epoch observation values (Epoch: 2026-05-03T20:45:35.671Z)
Latitude
-0.00008°
Longitude
99.61236°
Altitude
726.013 km
Speed
7.49 km/s
True Right ascension
18h 11m 05s
True Declination
0° 00' 00"
Sunlit
Object was in full shadow at epoch
Visualization orbit readout
Latitude
Unknown
Longitude
Unknown
Altitude
Unknown
Speed
Unknown
Apparent Right ascension
Unknown
Apparent Declination
Unknown
Sunlit
N/A
Visualization observer readout
Local Sidereal Time
00:28:27
Azimuth
Unknown
Elevation
Unknown
Doppler factor
Unknown
Orbital elements
Apogee altitude
731.108 km
Perigee altitude
701.993 km
Semi-major axis
7,094.688 km
Eccentricity
0.00205
Inclination
98.8463°
RAAN
272.7734°
Arg. of periapsis
255.5701°
True anomaly
104.54918°
Mean anomaly
104.3215°
Eccentric anomaly
104.43535°
Mean motion
3.63198 °/min
Orbital period
99.12 mins
BSTAR
0.0020658
Loading maneuver chart data...
Computing Atmospheric mass density...

Documentation

Showing up to 5 results
|